Location: Burbank
(38.7788°N, 114.0429°W)
Time: 11:39:22
(UTC+00:00)

Vanguard 2 Rocket - Pass Details

Date: 17 May 2026
Orbit: 553 x 3286 km, 32.9° (Epoch: 11 June)

Event Time Altitude Azimuth Distance (km) Brightness Sun altitude
Rises 01:16:46 0° 281° (WNW) 7,150 13.4 14.9°
Reaches altitude 10° 01:22:48 10° 271° (W) 6,226 13.3 13.8°
Maximum altitude 01:37:03 26° 225° (SW) 4,783 11.1 11.1°
Drops below altitude 10° 01:49:19 10° 177° (S) 5,254 10.6 8.8°
Sets 01:53:55 0° 165° (SSE) 5,870 10.7 8.0°
